Location: Grange Rosano
(44.4500°N, 6.9667°E)
Time: 08:14:58
(UTC+00:00)

Cosmos 1943 Rocket - Pass Details

Date: 26 May 2022
Orbit: 810 x 845 km, 71.0° (Epoch: 01 July)

Event Time Altitude Azimuth Distance (km) Brightness Sun altitude
Rises 01:25:58 0° 334° (NNW) 3,412 5.9 -19.2°
Reaches altitude 10° 01:28:25 10° 334° (NNW) 2,475 5.1 -19.0°
Maximum altitude 01:34:07 87° 247° (WSW) 852 2.1 -18.5°
Enters shadow 01:39:20 12° 158° (SSE) 2,284 4.1 -18.0°
